2023/02/07 00:00:00,33.9, 3.9
2023/02/07 00:10:00,34.0, 3.3
2023/02/07 00:20:00,34.0, 3.5
2023/02/07 00:30:00,34.1, 3.9
2023/02/07 00:40:00,34.1, 4.2
2023/02/07 00:50:00,34.1, 4.3
2023/02/07 01:00:00,34.1, 3.7
2023/02/07 01:10:00,34.2, 4.1
2023/02/07 01:20:00,34.2, 3.9
2023/02/07 01:30:00,34.1, 3.7
2023/02/07 01:40:00,34.1, 3.7
2023/02/07 01:50:00,34.3, 3.7
2023/02/07 02:00:00,33.8, 3.9
2023/02/07 02:10:00,33.4, 4.2
2023/02/07 02:20:00,33.6, 3.7
2023/02/07 02:30:00,33.5, 4.1
2023/02/07 02:40:00,33.3, 4.4
2023/02/07 02:50:00,33.4, 4.3
2023/02/07 03:00:00,33.5, 4.2
2023/02/07 03:10:00,33.5, 3.6
2023/02/07 03:20:00,33.5, 3.3
2023/02/07 03:30:00,33.5, 3.5
2023/02/07 03:40:00,33.4, 3.0
2023/02/07 03:50:00,33.3, 2.4
2023/02/07 04:00:00,33.3, 2.4
2023/02/07 04:10:00,33.3, 2.3
2023/02/07 04:20:00,33.3, 2.6
2023/02/07 04:30:00,33.3, 2.6
2023/02/07 04:40:00,33.3, 2.6
2023/02/07 04:50:00,33.4, 2.5
2023/02/07 05:00:00,33.3, 2.6
2023/02/07 05:10:00,33.3, 2.9
2023/02/07 05:20:00,33.4, 2.3
2023/02/07 05:30:00,33.3, 2.5
2023/02/07 05:40:00,33.3, 2.6
2023/02/07 05:50:00,33.2, 2.5
2023/02/07 06:00:00,33.0, 2.5
2023/02/07 06:10:00,32.7, 2.2
2023/02/07 06:20:00,32.6, 2.3
2023/02/07 06:30:00,32.5, 2.5
2023/02/07 06:40:00,32.5, 2.8
2023/02/07 06:50:00,32.5, 2.7
2023/02/07 07:00:00,32.5, 2.6
2023/02/07 07:10:00,32.5, 2.7
2023/02/07 07:20:00,32.5, 2.8
2023/02/07 07:30:00,32.5, 2.5
2023/02/07 07:40:00,32.5, 2.6
2023/02/07 07:50:00,32.4, 2.9
2023/02/07 08:00:00,32.3, 2.8
2023/02/07 08:10:00,32.3, 2.8
2023/02/07 08:20:00,32.3, 2.9
2023/02/07 08:30:00,32.2, 3.1
2023/02/07 08:40:00,32.2, 3.7
2023/02/07 08:50:00,32.2, 4.2
2023/02/07 09:00:00,32.3, 4.1
2023/02/07 09:10:00,32.3, 4.4
2023/02/07 09:20:00,32.2, 3.8
2023/02/07 09:30:00,32.2, 4.3
2023/02/07 09:40:00,32.3, 4.4
2023/02/07 09:50:00,32.4, 4.6
2023/02/07 10:00:00,32.7, 4.5
2023/02/07 10:10:00,32.7, 4.6
2023/02/07 10:20:00,32.5, 5.0
2023/02/07 10:30:00,32.2, 5.3
2023/02/07 10:40:00,32.0, 5.7
2023/02/07 10:50:00,31.8, 5.4
2023/02/07 11:00:00,32.0, 6.5
2023/02/07 11:10:00,32.1, 5.5
2023/02/07 11:20:00,32.0, 5.4
2023/02/07 11:30:00,31.9, 5.2
2023/02/07 11:40:00,31.6, 5.8
2023/02/07 11:50:00,30.9, 5.7
2023/02/07 12:00:00,30.9, 6.3
2023/02/07 12:10:00,30.6, 6.3
2023/02/07 12:20:00,30.6, 6.0
2023/02/07 12:30:00,30.5, 5.7
2023/02/07 12:40:00,30.2, 5.8
2023/02/07 12:50:00,29.7, 5.7
2023/02/07 13:00:00,29.6, 6.1
2023/02/07 13:10:00,29.5, 5.7
2023/02/07 13:20:00,29.4, 5.5
2023/02/07 13:30:00,29.4, 5.7
2023/02/07 13:40:00,29.4, 5.8
2023/02/07 13:50:00,29.4, 5.7
2023/02/07 14:00:00,29.5, 5.7
2023/02/07 14:10:00,29.5, 6.6
2023/02/07 14:20:00,29.5, 5.9
2023/02/07 14:30:00,29.5, 5.3
2023/02/07 14:40:00,29.6, 6.1
2023/02/07 14:50:00,29.8, 5.1
2023/02/07 15:00:00,29.9, 5.0
2023/02/07 15:10:00,29.6, 4.9
2023/02/07 15:20:00,29.6, 4.7
2023/02/07 15:30:00,29.7, 5.0
2023/02/07 15:40:00,29.6, 5.0
2023/02/07 15:50:00,29.7, 4.6
2023/02/07 16:00:00,29.7, 4.5
2023/02/07 16:10:00,29.6, 4.6
2023/02/07 16:20:00,29.4, 4.0
2023/02/07 16:30:00,29.3, 4.1
2023/02/07 16:40:00,29.3, 3.9
2023/02/07 16:50:00,29.2, 3.9
2023/02/07 17:00:00,29.2, 3.7
2023/02/07 17:10:00,29.1, 3.6
2023/02/07 17:20:00,29.1, 3.5
2023/02/07 17:30:00,29.1, 3.3
2023/02/07 17:40:00,29.0, 3.1
2023/02/07 17:50:00,29.1, 3.0
2023/02/07 18:00:00,29.1, 2.9
2023/02/07 18:10:00,29.2, 2.9
2023/02/07 18:20:00,29.1, 2.8
2023/02/07 18:30:00,28.9, 2.9
2023/02/07 18:40:00,28.8, 2.5
2023/02/07 18:50:00,28.6, 3.0
2023/02/07 19:00:00,28.6, 3.0
2023/02/07 19:10:00,28.6, 3.0
2023/02/07 19:20:00,28.5, 2.9
2023/02/07 19:30:00,28.5, 2.8
2023/02/07 19:40:00,28.6, 2.7
2023/02/07 19:50:00,28.5, 3.2
2023/02/07 20:00:00,28.5, 2.9
2023/02/07 20:10:00,28.5, 2.8
2023/02/07 20:20:00,28.5, 2.5
2023/02/07 20:30:00,28.6, 2.6
2023/02/07 20:40:00,28.6, 2.8
2023/02/07 20:50:00,28.6, 2.6
2023/02/07 21:00:00,28.5, 2.6
2023/02/07 21:10:00,28.5, 2.6
2023/02/07 21:20:00,28.5, 2.7
2023/02/07 21:30:00,28.5, 2.4
2023/02/07 21:40:00,28.4, 2.5
2023/02/07 21:50:00,28.4, 2.5
2023/02/07 22:00:00,28.4, 2.7
2023/02/07 22:10:00,28.4, 2.7
2023/02/07 22:20:00,28.5, 2.4
2023/02/07 22:30:00,28.5, 2.3
2023/02/07 22:40:00,28.5, 2.4
2023/02/07 22:50:00,28.5, 2.2
2023/02/07 23:00:00,28.4, 2.2
2023/02/07 23:10:00,28.4, 2.6
2023/02/07 23:20:00,28.4, 2.1
2023/02/07 23:30:00,28.4, 2.2
2023/02/07 23:40:00,28.4, 2.3
2023/02/07 23:50:00,28.4, 2.3
